Location: Alpha Ridge Park
(39.3209°N, 76.9128°W)
Time: 04:55:52
(UTC-04:00)

Vanguard 2 Rocket - Visible Passes

Search period start: 20 October 2019 00:00
Search period end: 30 October 2019 00:00
Orbit: 553 x 3327 km, 32.9° (Epoch: 18 October)

Date Brightness Start Highest point End Pass type
(mag) Time Alt. Az. Time Alt. Az. Time Alt. Az.
22 Oct 10.9 06:15:14 10° SSE 06:22:58 16° SE 06:32:12 10° E visible
24 Oct 10.5 06:25:51 10° S 06:35:41 24° SE 06:48:40 10° E visible
25 Oct 10.6 05:29:55 10° SSE 05:35:52 14° SE 05:43:02 10° E visible
26 Oct 10.2 06:37:54 10° SSW 06:48:33 33° SE 07:03:45 10° E visible
27 Oct 10.2 05:40:25 10° S 05:48:36 22° SE 05:59:44 10° E visible
28 Oct 10.4 04:45:19 10° SE 04:49:08 12° SE 04:53:32 10° ESE visible
28 Oct 10.0 06:50:43 10° SSW 07:01:37 42° SE 07:18:12 10° E visible
29 Oct 9.9 05:52:31 10° SSW 06:01:29 31° SE 06:14:52 10° E visible
